GEO-KOMPSAT-2A

Last updated on Sat Dec 13 2025 00:02:23 GMT+0000 (Coordinated Universal Time)

1 43823U 18100A 25346.01631458 -.00000334 00000+0 00000+0 0 9997 2 43823 0.0430 144.5078 0000423 350.0499 80.5448 1.00274151 25756
UTC large
Height (km)
Speed (km/s)
/
Latitude / Longitude
Inclination (degrees)
Orbital Period (minutes)
Azimuth
Elevation
Range (km)
Doppler Factor

Next 0 passes for location: London (51.5072 / 0.1276)

Sorry there are no passes over London.